Location: Baggett Branch
(32.6074°N, 97.0167°W)
Time: 11:18:29
(UTC+00:00)

Landsat 7 - Pass Details

Date: 10 February 2026
Orbit: 680 x 682 km, 97.9° (Epoch: 8 March)

Event Time Altitude Azimuth Distance (km) Brightness Sun altitude
Rises 12:39:16 0° 12° (NNE) 3,042 7.1 -8.2°
Reaches altitude 10° 12:41:31 10° 14° (NNE) 2,123 6.3 -7.8°
Maximum altitude 12:46:10 82° 101° (E) 689 3.9 -6.8°
Drops below altitude 10° 12:50:47 10° 190° (S) 2,109 6.3 -5.9°
Sets 12:53:01 0° 191° (SSW) 3,021 7.1 -5.4°
